This is the latest recevied weather packets stored in our database for station/object KC1DMA. If no packets are shown the sender has not sent any weather packets the latest 10 day(s).
| Time | Temp. | Humidity | Pressure | Rain* | Wind** | Luminosity | Snow |
|---|---|---|---|---|---|---|---|
| 1777752098 | 12.22° C | 67% | 1012.1 hPa | - | - | 244 W/m² | - |
| 1777751797 | 12.22° C | 67% | 1012.1 hPa | - | - | 255 W/m² | - |
| 1777751493 | 11.67° C | 68% | 1012.2 hPa | - | - | 242 W/m² | - |
| 1777751190 | 11.67° C | 68% | 1012.3 hPa | - | - | 205 W/m² | - |
| 1777750886 | 12.22° C | 69% | 1012.5 hPa | - | - | 236 W/m² | - |
| 1777750583 | 12.22° C | 70% | 1012.3 hPa | - | - | 598 W/m² | - |
| 1777750280 | 12.22° C | 72% | 1012.5 hPa | - | - | 587 W/m² | - |
| 1777749975 | 12.78° C | 71% | 1012.5 hPa | - | - | 711 W/m² | - |
| 1777749673 | 12.78° C | 73% | 1012.6 hPa | - | - | 696 W/m² | - |
| 1777749369 | 12.22° C | 75% | 1012.5 hPa | - | - | 780 W/m² | - |
| 1777749062 | 11.11° C | 76% | 1012.8 hPa | - | - | 357 W/m² | - |
| 1777748759 | 11.67° C | 77% | 1012.9 hPa | - | - | 293 W/m² | - |
| 1777748450 | 11.11° C | 77% | 1012.9 hPa | - | - | 630 W/m² | - |
| 1777748144 | 11.11° C | 76% | 1012.8 hPa | - | - | 545 W/m² | - |
| 1777747842 | 10.56° C | 77% | 1012.8 hPa | - | - | 556 W/m² | - |
| 1777747538 | 10.56° C | 80% | 1012.9 hPa | - | - | 726 W/m² | - |
| 1777747234 | 10.56° C | 82% | 1013 hPa | - | - | 292 W/m² | - |
| 1777746930 | 10° C | 83% | 1013 hPa | - | - | 581 W/m² | - |
| 1777746626 | 10° C | 84% | 1013.3 hPa | - | - | 854 W/m² | - |
| 1777746321 | 10° C | 85% | 1013.1 hPa | - | - | 316 W/m² | - |
| 1777746018 | 9.44° C | 85% | 1013.2 hPa | - | - | 389 W/m² | - |
| 1777745716 | 9.44° C | 86% | 1013.2 hPa | - | - | 271 W/m² | - |
| 1777745415 | 8.89° C | 86% | 1013.3 hPa | - | - | 122 W/m² | - |
| 1777745111 | 8.89° C | 85% | 1013.3 hPa | - | - | 88 W/m² | - |
| 1777744808 | 9.44° C | 84% | 1013 hPa | - | - | 109 W/m² | - |
* Rain since midnight (hover to see other rain measurements)
** Current wind speed in m/s (hover to see current wind gust speed)